Snowfall_Accumulation
0.0 0.2 0.2 0.0 0.0 0.0 0.0 0.0 0.0 0.0 0.0 0.0 0.0 0.0 0.0 0.0 0.0 0.0 0.0 0.0 0.0 0.0 0.0 0.0 0.0 0.0 0.0
0.1 0.2 0.1 0.0 0.0 0.0 0.0 0.0 0.0 0.0 0.0 0.0 0.0 0.0 0.0 0.0 0.0 0.0 0.0 0.0 0.0 0.0 0.0 0.0 0.0 0.0 0.0
0.1 0.1 0.0 0.0 0.1 0.1 0.0 0.0 0.0 0.0 0.0 0.0 0.0 0.0 0.0 0.0 0.0 0.0 0.0 0.0 0.0 0.0 0.0 0.0 0.0 0.0 0.0
0.1 0.8 0.7 0.2 0.2 0.0 0.0 0.0 0.0 0.0 0.0 0.0 0.0 0.0 0.0 0.0 0.0 0.0 0.0 0.0 0.0 0.0 0.0 0.0 0.0 0.0 0.0
2.0 1.3 0.4 0.1 0.0 0.0 0.0 0.0 0.2 0.0 0.0 0.0 0.0 0.0 0.0 0.0 0.0 0.0 0.0 0.0 0.0 0.0 0.0 0.0 0.0 0.0 0.0
3.7 0.5 0.0 0.0 0.0 0.0 1.8 1.2 1.2 0.0 0.1 0.1 0.0 0.0 0.0 0.0 0.0 0.0 0.0 0.0 0.0 0.0 0.0 0.0 0.0 0.0 0.0
0.1 0.0 0.1 0.2 2.4 2.6 0.7 1.4 1.1 0.0 0.2 0.6 0.0 0.0 0.0 0.0 0.0 0.0 0.0 0.0 0.0 0.0 0.0 0.0 0.0 0.0 0.0
0.0 0.1 0.5 0.3 0.3 1.4 1.5 0.9 0.3 0.1 0.1 2.0 0.1 0.1 0.0 0.0 0.0 0.0 0.0 0.0 0.0 0.0 0.0 0.0 0.0 0.0 0.0
0.2 0.1 0.0 0.0 0.0 1.0 2.1 2.5 1.6 0.0 0.0 0.7 0.2 0.0 0.0 0.0 0.0 0.0 0.0 0.0 0.0 0.0 0.0 0.0 0.0 0.0 0.0
0.0 0.0 0.0 0.0 0.0 0.1 2.3 8.4 3.9 3.2 0.0 3.8 1.1 1.1 5.3 0.0 0.0 0.0 0.0 0.0 0.0 0.0 0.0 0.0 0.0 0.3 0.6
0.0 0.0 0.0 0.0 0.1 0.1 0.7 6.5 11.6 7.5 0.0 6.8 9.5 0.7 5.0 1.9 0.0 0.0 0.0 0.0 0.9 0.7 0.3 0.6 0.6 0.7 2.2
0.0 0.1 0.2 0.2 0.1 0.1 0.2 0.7 1.6 5.9 1.9 3.4 15.1 5.0 8.8 4.8 0.1 0.1 0.0 0.8 2.1 4.3 4.5 2.9 1.2 0.8 0.5
0.4 0.3 0.2 0.1 0.2 0.3 0.0 0.0 0.0 0.2 0.8 1.9 6.4 5.5 7.0 6.7 3.2 0.3 1.9 0.2 4.1 6.5 3.8 3.1 3.4 2.9 3.7
1.2 0.3 0.2 0.3 0.6 0.6 2.1 0.5 2.4 0.5 0.2 0.8 2.4 4.4 6.3 2.1 4.2 2.7 2.5 5.6 3.1 3.7 4.0 3.2 2.0 2.0 2.6
1.4 1.5 0.5 0.5 0.5 0.6 2.0 3.2 4.6 2.2 1.4 0.7 0.6 1.0 1.1 2.0 4.8 1.9 3.1 3.4 4.5 5.5 4.9 4.6 4.1 3.8 1.8
1.2 1.1 2.4 2.1 2.3 1.4 1.8 3.5 4.5 2.2 2.5 1.8 1.3 1.2 1.0 0.6 2.0 6.4 4.7 4.9 5.3 4.7 5.0 7.6 6.2 5.5 0.3
2.3 2.7 3.6 2.7 1.1 2.1 1.8 2.2 2.1 1.7 2.0 2.4 3.2 5.7 6.7 2.3 1.7 2.8 11.6 8.8 5.6 4.6 4.3 5.0 7.7 6.1 1.1